Location: Lahas
(43.5538°N, 0.8906°E)
Time: 10:22:25
(UTC+00:00)

Cosmos 2333 - Pass Details

Date: 15 May 2026
Orbit: 828 x 864 km, 70.9° (Epoch: 6 June)

Event Time Altitude Azimuth Distance (km) Brightness Sun altitude
Rises 21:55:55 0° 333° (NNW) 3,427 8.9 -21.9°
Reaches altitude 10° 21:58:22 10° 333° (NNW) 2,493 7.8 -22.1°
Maximum altitude 22:04:06 80° 247° (WSW) 877 4.2 -22.6°
Enters shadow 22:05:40 50° 170° (S) 1,086 4.3 -22.8°
